Location: Écuvilly
(49.6505°N, 2.9206°E)
Time: 16:30:36
(UTC+00:00)

Nadezhda 4 Rocket - Pass Details

Date: 17 November 2025
Orbit: 948 x 991 km, 82.9° (Epoch: 12 December)

Event Time Altitude Azimuth Distance (km) Brightness Sun altitude
Rises 18:11:01 0° 349° (N) 3,708 7.1 -20.5°
Reaches altitude 10° 18:13:34 10° 349° (N) 2,751 6.4 -20.9°
Maximum altitude 18:19:53 84° 264° (W) 988 4.0 -21.9°
Drops below altitude 10° 18:26:05 10° 176° (S) 2,704 6.3 -22.9°
Sets 18:28:34 0° 175° (S) 3,640 7.0 -23.3°
